Location: Observatoire de l'Aigle
(47.0607°N, 71.3152°W)
Time: 16:51:06
(UTC-05:00)

Amateur Radio Satellites - All Passes

Search period start: 03 December 2016 16:21
Search period end: 04 December 2016 16:21
Location: Observatoire de l'Aigle, 47.0607°N, 71.3152°W

Satellite Date Start Highest point End Downlink Frequencies (MHz)
Time Altitude Azimuth
BRITE-PL 03 Dec 16:21:20 16:25:35 67° 260° (W) 16:30:08 437.365/2234.400
STARS 03 Dec 16:25:19 16:29:42 56° 101° (E) 16:34:02 437.465
HORYU 2 03 Dec 16:26:26 16:30:54 66° 258° (WSW) 16:35:23 437.375
CUTE-I 03 Dec 16:31:07 16:36:13 45° 68° (ENE) 16:41:19 437.470
RS-15 03 Dec 16:36:37 16:49:02 81° 237° (WSW) 17:01:03 29.354- 29.394
DOVE 4 03 Dec 16:37:37 16:41:58 36° 67° (ENE) 16:46:36 437.250
CINEMA 3 03 Dec 16:42:42 16:45:11 14° 57° (ENE) 16:47:43 145.822/145.860
O/OREOS (USA 219) 03 Dec 16:50:24 16:54:56 64° 297° (WNW) 16:59:28 437.305
CUBESAT XI-V 03 Dec 16:50:34 16:55:15 75° 103° (ESE) 16:59:55 437.345
Cubesat XI-IV 03 Dec 16:55:47 17:01:08 71° 72° (ENE) 17:06:31 437.490
MOZHAYETS 4 03 Dec 16:57:09 17:00:18 19° 299° (WNW) 17:03:27
NOAA 15 03 Dec 17:03:25 17:08:40 89° 261° (W) 17:13:57 137.62
AIST 2 03 Dec 17:08:57 17:13:12 73° 235° (SW) 17:17:24 435.215
LilacSat-2 03 Dec 17:14:11 17:18:02 71° 259° (WSW) 17:21:54 437.200
Cosmos 2491 03 Dec 17:17:32 17:26:00 51° 73° (ENE) 17:34:24 435.465 / 435.565
HO-68 03 Dec 17:29:15 17:35:45 39° 60° (ENE) 17:42:17 435.675
CUTE 1.7 + AOD 2 03 Dec 17:39:12 17:42:29 22° 65° (ENE) 17:45:47 437.475
STRAND 1 03 Dec 17:42:26 17:43:49 11° 86° (E) 17:45:11 437.568
ISS 03 Dec 17:45:33 17:48:50 65° 150° (SSE) 17:52:07 145.825
KKS-1 03 Dec 17:49:12 17:51:28 14° 302° (WNW) 17:53:42 437.445
YUBILEINY 03 Dec 17:51:03 17:58:12 30° 81° (E) 18:05:24 435.215
GOMX 1 03 Dec 17:51:14 17:54:50 23° 270° (W) 17:58:38 467.674
NOAA 18 03 Dec 17:55:26 18:00:52 56° 258° (WSW) 18:06:21 137.9125
CANX-2 03 Dec 17:55:52 17:59:45 37° 69° (ENE) 18:03:38 2200.000
STARS 03 Dec 18:02:35 18:05:39 19° 299° (WNW) 18:08:41 437.465
UWE-3 03 Dec 18:08:37 18:11:24 16° 60° (ENE) 18:14:10 435.000/436.395/437.385
CUTE-I 03 Dec 18:11:51 18:16:26 28° 266° (W) 18:21:03 437.470
DOVE 4 03 Dec 18:15:31 18:19:42 30° 267° (W) 18:24:09 437.250
CINEMA 3 03 Dec 18:16:36 18:21:31 85° 75° (ENE) 18:26:36 145.822/145.860
AAUSAT CUBESAT 2 03 Dec 18:17:00 18:20:03 21° 64° (ENE) 18:23:07 437.432
SEEDS 03 Dec 18:27:13 18:31:13 46° 71° (ENE) 18:35:13 437.485
CUBESAT XI-V 03 Dec 18:29:21 18:32:04 16° 301° (WNW) 18:34:47 437.345
O/OREOS (USA 219) 03 Dec 18:33:46 18:35:17 11° 319° (NW) 18:36:48 437.305
PCSat 03 Dec 18:36:01 18:39:42 18° 32° (NNE) 18:43:22 145.827
Cubesat XI-IV 03 Dec 18:38:10 18:41:45 18° 270° (W) 18:45:22 437.490
AIST 1 03 Dec 18:42:43 18:45:18 16° 84° (E) 18:47:53
COMPASS 1 03 Dec 18:43:12 18:47:09 46° 71° (ENE) 18:51:07 437.405
NOAA 15 03 Dec 18:46:50 18:49:12 13° 273° (W) 18:51:34 137.62
Cosmos 2504 03 Dec 18:50:14 18:57:28 34° 82° (E) 19:05:02 435.465 / 435.565
RS-15 03 Dec 18:50:43 18:59:34 24° 261° (W) 19:08:15 29.354- 29.394
CUBEBUG 2 03 Dec 18:54:06 18:58:46 58° 72° (ENE) 19:03:26 437.445
ZACube-1 03 Dec 18:55:03 18:58:49 26° 66° (ENE) 19:02:33 437.345
FUNcube-1 03 Dec 19:04:14 19:08:10 29° 67° (ENE) 19:12:02 145.935
CUTE 1.7 + AOD 2 03 Dec 19:14:10 19:18:07 39° 263° (W) 19:22:06 437.475
Cosmos 2491 03 Dec 19:14:44 19:22:40 41° 274° (W) 19:30:35 435.465 / 435.565
HO-68 03 Dec 19:16:26 19:23:19 50° 260° (W) 19:30:17 435.675
STRAND 1 03 Dec 19:18:40 19:23:49 81° 104° (ESE) 19:28:54 437.568
ISS 03 Dec 19:22:19 19:25:29 40° 349° (N) 19:28:39 145.825
CANX-2 03 Dec 19:32:21 19:35:43 23° 267° (W) 19:39:06 2200.000
Oscar 11 03 Dec 19:38:11 19:42:25 58° 73° (ENE) 19:46:40 145.826/435.025
DELFI C3 03 Dec 19:40:14 19:43:18 22° 66° (ENE) 19:46:24 145.870
UWE-3 03 Dec 19:42:38 19:47:18 74° 258° (WSW) 19:51:57 435.000/436.395/437.385
CUSAT 1 03 Dec 19:42:55 19:45:57 34° 76° (ENE) 19:49:42 437.405
YUBILEINY 03 Dec 19:45:39 19:54:18 68° 283° (WNW) 20:03:04 435.215
AAUSAT CUBESAT 2 03 Dec 19:51:23 19:55:16 41° 262° (W) 19:59:11 437.432
CINEMA 3 03 Dec 19:56:57 19:59:20 13° 274° (W) 20:01:44 145.822/145.860
SEEDS 03 Dec 20:04:17 20:07:09 18° 269° (W) 20:10:02 437.485
AIST 1 03 Dec 20:18:12 20:22:25 53° 283° (WNW) 20:26:42
PCSat 03 Dec 20:18:42 20:24:08 68° 54° (NE) 20:29:32 145.827
SO-50 03 Dec 20:19:11 20:23:44 45° 120° (ESE) 20:28:12 436.795
COMPASS 1 03 Dec 20:20:09 20:22:57 17° 269° (W) 20:25:45 437.405
ZACube-1 03 Dec 20:30:40 20:34:56 38° 263° (W) 20:39:10 437.345
CUBEBUG 2 03 Dec 20:32:25 20:35:44 19° 270° (W) 20:39:02 437.445
FUNcube-1 03 Dec 20:40:12 20:44:19 33° 264° (W) 20:48:25 145.935
UNISAT 6 03 Dec 20:41:59 20:43:16 11° 86° (E) 20:44:32 437.425
Cosmos 2504 03 Dec 20:42:05 20:50:19 62° 285° (WNW) 20:59:06 435.465 / 435.565
HUMSAT D 03 Dec 20:47:01 20:51:11 64° 74° (ENE) 20:55:21 437.325/437.525
PRISM 03 Dec 20:57:31 21:01:40 65° 102° (ESE) 21:05:48 437.425
STRAND 1 03 Dec 20:59:12 21:02:21 17° 303° (WNW) 21:05:30 437.568
ISS 03 Dec 20:59:16 21:02:26 39° 10° (N) 21:05:35 145.825
TIGRISAT 03 Dec 21:11:10 21:14:33 21° 92° (E) 21:17:51 435.000
ANTELSAT 03 Dec 21:11:48 21:15:19 22° 92° (E) 21:18:44 437.575/2403.000
DELFI C3 03 Dec 21:14:23 21:17:58 33° 263° (W) 21:21:34 145.870
Oscar 11 03 Dec 21:16:21 21:18:56 15° 270° (W) 21:21:32 145.826/435.025
ESTCUBE 1 03 Dec 21:16:59 21:20:32 24° 64° (ENE) 21:24:06 437.505/2401.250
CUSAT 1 03 Dec 21:25:37 21:27:44 15° 266° (W) 21:30:08 437.405
SPROUT 03 Dec 21:33:05 21:33:19 10° 56° (NE) 21:33:33 437.525
AISAT 03 Dec 21:35:46 21:38:43 18° 61° (ENE) 21:41:41 437.250
DANDE 03 Dec 21:44:25 21:46:45 27° 263° (W) 21:49:21 436.750
YUBILEINY 03 Dec 21:47:47 21:53:04 17° 308° (NW) 21:58:26 435.215
50 SAT 03 Dec 21:53:41 21:55:48 15° 64° (ENE) 21:57:56 437.505
JAS-2 03 Dec 21:56:34 21:59:14 14° 88° (E) 22:01:55 435.910
SO-50 03 Dec 22:00:03 22:04:20 33° 319° (NW) 22:08:35 436.795
PCSat 03 Dec 22:03:02 22:07:01 21° 253° (WSW) 22:11:00 145.827
CUBEBUG 1 03 Dec 22:07:35 22:11:44 44° 70° (ENE) 22:15:55 437.445
VELOX 1 03 Dec 22:11:35 22:15:35 35° 67° (ENE) 22:19:36 145.980
QB50P1 03 Dec 22:12:22 22:13:38 11° 88° (E) 22:14:54 145.935-145.965
UNISAT 6 03 Dec 22:16:09 22:20:38 83° 285° (WNW) 22:24:59 437.425
DUCHIFAT 1 03 Dec 22:18:22 22:19:32 11° 87° (E) 22:20:43 145.980
HUMSAT D 03 Dec 22:25:06 22:27:13 14° 271° (W) 22:29:20 437.325/437.525
POPSAT HIP 1 03 Dec 22:32:13 22:35:09 18° 91° (E) 22:38:05 437.405
GONETS M04 03 Dec 22:33:16 22:36:10 12° 69° (ENE) 22:39:04
DX 1 03 Dec 22:33:57 22:37:50 33° 67° (ENE) 22:41:46 434.975-435.025
PRISM 03 Dec 22:34:08 22:36:29 15° 300° (WNW) 22:38:49 437.425
ISS 03 Dec 22:35:48 22:39:07 71° 208° (SSW) 22:42:24 145.825
Cosmos 2504 03 Dec 22:41:04 22:45:55 16° 310° (NW) 22:50:54 435.465 / 435.565
UKube-1 03 Dec 22:46:23 22:50:15 33° 67° (ENE) 22:54:10 .
TIGRISAT 03 Dec 22:47:14 22:51:28 43° 290° (WNW) 22:55:35 435.000
ANTELSAT 03 Dec 22:48:01 22:52:12 40° 291° (WNW) 22:56:17 437.575/2403.000
ESTCUBE 1 03 Dec 22:52:53 22:57:07 42° 262° (W) 23:01:23 437.505/2401.250
TISAT 1 03 Dec 23:02:00 23:04:29 15° 60° (ENE) 23:06:57 437.305
SPROUT 03 Dec 23:04:10 23:08:28 76° 76° (ENE) 23:12:48 437.525
AISAT 03 Dec 23:10:23 23:14:45 59° 259° (W) 23:19:10 437.250
BUGSAT 1 03 Dec 23:24:28 23:27:47 22° 93° (E) 23:31:03 437.445
50 SAT 03 Dec 23:25:28 23:28:48 41° 261° (W) 23:32:10 437.505
NANOSAT C BR1 03 Dec 23:27:55 23:32:09 64° 102° (ESE) 23:36:19 145.865
QB50P2 03 Dec 23:31:08 23:35:25 79° 103° (ESE) 23:39:39 145.880/145.840
POLYITAN 1 03 Dec 23:31:45 23:36:02 76° 104° (ESE) 23:40:15 437.675
JAS-2 03 Dec 23:39:51 23:45:03 79° 287° (WNW) 23:50:21 435.910
SO-50 03 Dec 23:44:38 23:46:14 11° 342° (NNW) 23:47:49 436.795
CUBEBUG 1 03 Dec 23:44:57 23:48:13 21° 268° (W) 23:51:32 437.445
QB50P1 03 Dec 23:45:41 23:49:58 78° 285° (WNW) 23:54:12 145.935-145.965
ITUPSAT 1 03 Dec 23:47:08 23:48:47 12° 55° (NE) 23:50:26 437.325
VELOX 1 03 Dec 23:48:22 23:52:05 27° 265° (W) 23:55:51 145.980
Oscar 19 03 Dec 23:49:26 23:51:13 12° 86° (E) 23:53:01 437.125/150
Cosmos 2499 03 Dec 23:49:48 23:57:41 43° 86° (E) 00:05:52 435.465 / 435.565
DUCHIFAT 1 03 Dec 23:51:32 23:55:47 79° 285° (WNW) 23:59:59 145.980
UNISAT 6 03 Dec 23:55:15 23:56:34 11° 304° (NW) 23:57:52 437.425
POPSAT HIP 1 04 Dec 00:07:06 00:11:13 48° 289° (WNW) 00:15:17 437.405
DX 1 04 Dec 00:10:20 00:14:03 27° 265° (W) 00:17:48 434.975-435.025
ISS 04 Dec 00:13:37 00:15:07 13° 226° (SW) 00:16:36 145.825
GONETS M04 04 Dec 00:22:31 00:31:01 60° 91° (E) 00:39:31
UKube-1 04 Dec 00:22:41 00:26:20 27° 265° (W) 00:30:01 .
AUBIESAT-1 04 Dec 00:31:55 00:35:48 40° 63° (ENE) 00:39:57 437.475
TISAT 1 04 Dec 00:35:25 00:39:38 65° 259° (W) 00:43:53 437.305
M-CUBED/EXP-1 PRIME 04 Dec 00:41:44 00:45:46 61° 66° (ENE) 00:50:08 437.505
SPROUT 04 Dec 00:43:20 00:44:56 12° 272° (W) 00:46:32 437.525
MOZHAYETS 4 04 Dec 00:50:26 00:51:43 11° 56° (NE) 00:52:59
SWISSCUBE 04 Dec 00:51:02 00:55:34 45° 69° (ENE) 01:00:07 437.505
BEESAT 04 Dec 00:55:22 00:59:54 45° 69° (ENE) 01:04:26 436.000
BUGSAT 1 04 Dec 00:59:21 01:03:17 38° 291° (WNW) 01:07:09 437.445
Gurwin Techsat 1B 04 Dec 01:02:08 01:06:42 28° 94° (E) 01:11:15 435.225
NANOSAT C BR1 04 Dec 01:04:54 01:07:23 15° 300° (WNW) 01:09:51 145.865
QB50P2 04 Dec 01:08:40 01:10:36 13° 301° (WNW) 01:12:32 145.880/145.840
POLYITAN 1 04 Dec 01:09:11 01:11:14 13° 301° (WNW) 01:13:18 437.675
O/OREOS (USA 219) 04 Dec 01:18:14 01:22:38 50° 60° (ENE) 01:26:58 437.305
ITUPSAT 1 04 Dec 01:21:01 01:25:48 75° 73° (ENE) 01:30:36 437.325
QB50P1 04 Dec 01:24:45 01:24:58 10° 304° (NW) 01:25:11 145.935-145.965
Oscar 19 04 Dec 01:26:06 01:31:20 83° 105° (ESE) 01:36:33 437.125/150
JAS-2 04 Dec 01:27:13 01:29:20 12° 307° (NW) 01:31:26 435.910
KKS-1 04 Dec 01:37:40 01:40:07 15° 58° (ENE) 01:42:36 437.445
Cosmos 2499 04 Dec 01:42:26 01:50:42 50° 288° (WNW) 01:59:20 435.465 / 435.565
ITAMSAT 1 04 Dec 01:49:59 01:53:32 18° 90° (E) 01:57:03 435.822/435.867
STARS 04 Dec 01:52:57 01:53:19 10° 55° (NE) 01:53:41 437.465
PHONESAT 2.4 04 Dec 01:54:13 01:55:43 14° 165° (SSE) 01:57:12 2401.200-2431.200
AO-7 04 Dec 01:58:57 02:04:37 19° 88° (E) 02:10:15 29.400- 29.500
AO-85 04 Dec 02:02:31 02:07:04 39° 119° (ESE) 02:11:19 145.980
AUBIESAT-1 04 Dec 02:07:04 02:10:23 23° 262° (W) 02:13:52 437.475
M-CUBED/EXP-1 PRIME 04 Dec 02:18:15 02:20:42 15° 266° (W) 02:23:15 437.505
GONETS M04 04 Dec 02:20:32 02:28:20 35° 294° (WNW) 02:36:10
CUBESAT XI-V 04 Dec 02:22:05 02:24:26 14° 58° (ENE) 02:26:49 437.345
MOZHAYETS 4 04 Dec 02:23:29 02:28:05 77° 74° (ENE) 02:32:41
SWISSCUBE 04 Dec 02:29:44 02:33:34 24° 267° (W) 02:37:24 437.505
BEESAT 04 Dec 02:34:02 02:37:52 24° 267° (W) 02:41:43 436.000
Gurwin Techsat 1B 04 Dec 02:41:47 02:46:49 44° 293° (WNW) 02:51:50 435.225
O/OREOS (USA 219) 04 Dec 02:58:28 03:01:40 19° 259° (WSW) 03:04:50 437.305
ITUPSAT 1 04 Dec 03:01:39 03:04:11 14° 271° (W) 03:06:43 437.325
Oscar 19 04 Dec 03:06:48 03:10:00 17° 303° (WNW) 03:13:13 437.125/150
SO-50 04 Dec 03:07:48 03:11:12 20° 32° (NNE) 03:14:33 436.795
KKS-1 04 Dec 03:11:38 03:16:06 76° 256° (WSW) 03:20:37 437.445
STARS 04 Dec 03:24:26 03:28:50 72° 74° (ENE) 03:33:17 437.465
ITAMSAT 1 04 Dec 03:28:19 03:33:29 66° 289° (WNW) 03:38:36 435.822/435.867
PHONESAT 2.4 04 Dec 03:28:24 03:30:27 20° 181° (S) 03:32:30 2401.200-2431.200
Cosmos 2499 04 Dec 03:42:46 03:46:27 13° 314° (NW) 03:50:11 435.465 / 435.565
AO-85 04 Dec 03:43:10 03:47:33 35° 317° (NW) 03:51:39 145.980
AO-7 04 Dec 03:50:09 03:58:36 83° 108° (ESE) 04:07:01 29.400- 29.500
YUBILEINY 04 Dec 03:56:20 04:02:05 18° 54° (NE) 04:07:49 435.215
CUBESAT XI-V 04 Dec 03:56:36 04:01:11 82° 256° (WSW) 04:05:49 437.345
MOZHAYETS 4 04 Dec 04:03:42 04:05:48 13° 272° (W) 04:07:54
GOMX 1 04 Dec 04:11:49 04:14:29 14° 86° (E) 04:17:09 467.674
HORYU 2 04 Dec 04:15:06 04:18:14 19° 92° (E) 04:21:20 437.375
BRITE-PL 04 Dec 04:21:55 04:26:46 34° 95° (E) 04:31:50 437.365/2234.400
BEESAT 3 04 Dec 04:38:57 04:41:48 20° 114° (ESE) 04:44:43 437.485
Cosmos 2504 04 Dec 04:38:59 04:44:23 17° 52° (NE) 04:49:39 435.465 / 435.565
CUTE-I 04 Dec 04:46:37 04:49:14 14° 87° (E) 04:51:49 437.470
SO-50 04 Dec 04:47:43 04:52:18 89° 230° (SW) 04:56:46 436.795
STRAND 1 04 Dec 04:59:49 05:03:53 24° 61° (ENE) 05:07:56 437.568
RS-15 04 Dec 05:03:15 05:04:44 10° 88° (E) 05:06:12 29.354- 29.394
BEESAT 2 04 Dec 05:03:19 05:05:53 17° 112° (ESE) 05:08:29 435.950
STARS 04 Dec 05:03:35 05:05:42 13° 271° (W) 05:07:50 437.465
PHONESAT 2.4 04 Dec 05:03:59 05:05:09 12° 198° (SSW) 05:06:20 2401.200-2431.200
ITAMSAT 1 04 Dec 05:10:18 05:11:59 12° 308° (NW) 05:13:39 435.822/435.867
Cubesat XI-IV 04 Dec 05:10:39 05:14:47 22° 92° (E) 05:18:52 437.490
NOAA 15 04 Dec 05:15:51 05:20:17 27° 94° (E) 05:24:43 137.62
AO-85 04 Dec 05:28:09 05:29:12 11° 338° (NNW) 05:30:16 145.980
AO-7 04 Dec 05:43:47 05:50:33 29° 310° (NW) 05:57:19 29.400- 29.500
GOMX 1 04 Dec 05:47:48 05:53:16 86° 105° (ESE) 05:58:47 467.674
HORYU 2 04 Dec 05:50:45 05:55:05 50° 289° (WNW) 05:59:20 437.375
YUBILEINY 04 Dec 05:51:52 06:00:42 73° 78° (ENE) 06:09:32 435.215
BRITE-PL 04 Dec 06:00:22 06:05:14 39° 292° (WNW) 06:10:21 437.365/2234.400
CINEMA 3 04 Dec 06:09:33 06:12:53 18° 89° (E) 06:16:06 145.822/145.860
DOVE 4 04 Dec 06:10:13 06:15:32 65° 101° (E) 06:20:44 437.250
NOAA 18 04 Dec 06:14:16 06:19:39 49° 100° (E) 06:24:59 137.9125
BEESAT 3 04 Dec 06:15:20 06:19:08 48° 312° (NW) 06:23:00 437.485
LilacSat-2 04 Dec 06:18:39 06:22:27 71° 285° (WNW) 06:26:12 437.200
AIST 1 04 Dec 06:21:49 06:26:07 50° 77° (ENE) 06:30:24
Cosmos 2491 04 Dec 06:22:20 06:30:42 52° 89° (E) 06:39:04 435.465 / 435.565
CUTE-I 04 Dec 06:24:39 06:30:01 89° 286° (WNW) 06:35:21 437.470
SO-50 04 Dec 06:30:18 06:32:01 12° 252° (WSW) 06:33:44 436.795
Cosmos 2504 04 Dec 06:30:58 06:39:50 66° 76° (ENE) 06:48:15 435.465 / 435.565
STRAND 1 04 Dec 06:37:42 06:42:43 53° 259° (W) 06:47:46 437.568
BEESAT 2 04 Dec 06:39:23 06:43:17 56° 311° (NW) 06:47:14 435.950
HO-68 04 Dec 06:40:46 06:46:54 29° 93° (E) 06:53:00 435.675
Cubesat XI-IV 04 Dec 06:49:58 06:55:13 57° 290° (WNW) 07:00:26 437.490
NOAA 15 04 Dec 06:55:15 07:00:17 46° 292° (WNW) 07:05:17 137.62
CUTE 1.7 + AOD 2 04 Dec 06:55:54 06:59:32 28° 95° (E) 07:03:09 437.475
RS-15 04 Dec 07:02:42 07:13:50 52° 112° (ESE) 07:25:25 29.354- 29.394
AIST 2 04 Dec 07:12:25 07:13:14 10° 108° (ESE) 07:14:04 435.215
CANX-2 04 Dec 07:13:07 07:17:13 48° 99° (E) 07:21:18 2200.000
GOMX 1 04 Dec 07:27:13 07:30:39 17° 302° (WNW) 07:34:08 467.674
UWE-3 04 Dec 07:30:22 07:33:23 18° 90° (E) 07:36:20 435.000/436.395/437.385
AAUSAT CUBESAT 2 04 Dec 07:30:35 07:33:57 24° 94° (E) 07:37:19 437.432
UNISAT 6 04 Dec 07:42:40 07:45:41 17° 61° (ENE) 07:48:42 437.425
SEEDS 04 Dec 07:43:16 07:47:24 60° 100° (E) 07:51:32 437.485
CINEMA 3 04 Dec 07:45:36 07:50:27 60° 288° (WNW) 07:55:04 145.822/145.860
DOVE 4 04 Dec 07:48:46 07:52:43 22° 299° (WNW) 07:56:37 437.250
PRISM 04 Dec 07:49:26 07:53:28 69° 74° (ENE) 07:57:34 437.425
YUBILEINY 04 Dec 07:49:39 07:56:43 28° 280° (W) 08:03:48 435.215
NOAA 18 04 Dec 07:55:22 08:00:04 29° 299° (WNW) 08:04:44 137.9125
BEESAT 3 04 Dec 07:56:22 07:57:44 11° 334° (NNW) 07:59:05 437.485
COMPASS 1 04 Dec 07:58:01 08:02:08 59° 101° (E) 08:06:13 437.405
AIST 1 04 Dec 08:00:25 08:03:19 17° 275° (W) 08:06:12
CUTE-I 04 Dec 08:06:13 08:09:19 16° 305° (NW) 08:12:25 437.470
TIGRISAT 04 Dec 08:12:10 08:16:11 29° 66° (ENE) 08:20:10 435.000
ANTELSAT 04 Dec 08:12:57 08:17:02 30° 66° (ENE) 08:21:06 437.575/2403.000
JAS-2 04 Dec 08:14:07 08:16:26 12° 53° (NE) 08:18:42 435.910
ZACube-1 04 Dec 08:15:57 08:19:49 32° 95° (E) 08:23:35 437.345
CUBEBUG 2 04 Dec 08:18:34 08:23:05 85° 104° (ESE) 08:27:24 437.445
Cosmos 2491 04 Dec 08:19:37 08:27:46 41° 291° (WNW) 08:35:57 435.465 / 435.565
BEESAT 2 04 Dec 08:20:06 08:21:57 13° 332° (NNW) 08:23:47 435.950
FUNcube-1 04 Dec 08:24:54 08:28:51 36° 97° (E) 08:32:43 145.935
Cosmos 2504 04 Dec 08:25:07 08:32:36 32° 279° (W) 08:39:49 435.465 / 435.565
HO-68 04 Dec 08:27:59 08:35:06 63° 293° (WNW) 08:42:10 435.675
CUTE 1.7 + AOD 2 04 Dec 08:31:40 08:35:21 30° 292° (WNW) 08:39:03 437.475
Cubesat XI-IV 04 Dec 08:33:22 08:34:11 10° 310° (NW) 08:35:00 437.490
AIST 2 04 Dec 08:46:53 08:50:59 88° 136° (SE) 08:55:12 435.215
DELFI C3 04 Dec 08:48:33 08:51:47 23° 94° (E) 08:55:00 145.870
CANX-2 04 Dec 08:49:47 08:52:44 19° 297° (WNW) 08:55:43 2200.000
CUSAT 1 04 Dec 08:50:07 08:52:42 22° 97° (E) 08:55:00 437.405
AO-85 04 Dec 08:51:44 08:54:07 15° 29° (NNE) 08:56:27 145.980
QB50P2 04 Dec 08:54:05 08:55:21 11° 57° (ENE) 08:56:38 145.880/145.840
POLYITAN 1 04 Dec 08:54:56 08:55:59 11° 57° (ENE) 08:57:01 437.675
Oscar 11 04 Dec 08:58:11 09:02:30 80° 103° (ESE) 09:06:48 145.826/435.025
AAUSAT CUBESAT 2 04 Dec 09:05:44 09:09:30 34° 291° (WNW) 09:13:15 437.432
UWE-3 04 Dec 09:05:56 09:10:09 48° 289° (WNW) 09:14:14 435.000/436.395/437.385
QB50P1 04 Dec 09:07:20 09:09:36 14° 59° (ENE) 09:11:52 145.935-145.965
DUCHIFAT 1 04 Dec 09:12:43 09:14:54 14° 59° (ENE) 09:17:04 145.980
DANDE 04 Dec 09:14:14 09:17:11 17° 94° (E) 09:19:43 436.750
RS-15 04 Dec 09:14:23 09:26:12 62° 318° (NW) 09:38:31 29.354- 29.394
UNISAT 6 04 Dec 09:17:13 09:21:54 68° 258° (WSW) 09:26:35 437.425
SEEDS 04 Dec 09:20:10 09:22:40 16° 298° (WNW) 09:25:08 437.485
POPSAT HIP 1 04 Dec 09:27:28 09:30:42 21° 63° (ENE) 09:33:57 437.405
PRISM 04 Dec 09:27:41 09:29:16 12° 271° (W) 09:30:49 437.425
COMPASS 1 04 Dec 09:34:45 09:37:14 16° 298° (WNW) 09:39:44 437.405
Cosmos 2499 04 Dec 09:37:49 09:43:57 20° 55° (NE) 09:49:50 435.465 / 435.565
TIGRISAT 04 Dec 09:48:24 09:52:44 37° 263° (W) 09:57:04 435.000
ANTELSAT 04 Dec 09:49:23 09:53:39 34° 264° (W) 09:57:55 437.575/2403.000
ZACube-1 04 Dec 09:52:24 09:56:00 27° 294° (WNW) 09:59:32 437.345
JAS-2 04 Dec 09:54:14 10:00:39 64° 71° (ENE) 10:06:20 435.910
CUBEBUG 2 04 Dec 09:57:00 09:59:00 13° 302° (WNW) 10:00:57 437.445
FUNcube-1 04 Dec 10:01:30 10:04:55 24° 295° (WNW) 10:08:16 145.935
HUMSAT D 04 Dec 10:02:43 10:06:50 80° 103° (ESE) 10:10:53 437.325/437.525
BUGSAT 1 04 Dec 10:16:53 10:20:18 24° 65° (ENE) 10:23:44 437.445
HO-68 04 Dec 10:17:26 10:21:29 16° 314° (NW) 10:25:32 435.675
NANOSAT C BR1 04 Dec 10:22:26 10:26:41 69° 73° (ENE) 10:30:57 145.865
DELFI C3 04 Dec 10:23:05 10:26:39 32° 291° (WNW) 10:30:12 145.870
QB50P2 04 Dec 10:26:10 10:30:27 86° 76° (ENE) 10:34:46 145.880/145.840
POLYITAN 1 04 Dec 10:26:45 10:31:03 82° 72° (ENE) 10:35:22 437.675
AIST 2 04 Dec 10:27:11 10:30:03 18° 327° (NNW) 10:32:58 435.215
GONETS M04 04 Dec 10:28:55 10:36:46 35° 66° (ENE) 10:44:34
AO-85 04 Dec 10:31:14 10:35:17 75° 50° (NE) 10:39:10 145.980
CUSAT 1 04 Dec 10:32:59 10:34:34 13° 289° (WNW) 10:36:04 437.405
Oscar 11 04 Dec 10:36:04 10:38:02 13° 301° (WNW) 10:40:00 145.826/435.025
QB50P1 04 Dec 10:40:33 10:44:48 73° 257° (WSW) 10:49:07 145.935-145.965
ESTCUBE 1 04 Dec 10:42:05 10:46:08 32° 96° (E) 10:50:10 437.505/2401.250
DUCHIFAT 1 04 Dec 10:45:46 10:50:02 74° 259° (WSW) 10:54:18 145.980
SPROUT 04 Dec 10:49:38 10:50:30 10° 87° (E) 10:51:22 437.525
50 SAT 04 Dec 10:50:23 10:51:24 11° 90° (E) 10:52:25 437.505
Gurwin Techsat 1B 04 Dec 10:51:06 10:52:19 11° 51° (NE) 10:53:31 435.225
DANDE 04 Dec 10:55:26 10:59:48 39° 284° (WNW) 11:03:11 436.750
AISAT 04 Dec 10:57:56 11:01:22 21° 93° (E) 11:04:46 437.250
POPSAT HIP 1 04 Dec 11:02:06 11:06:12 44° 261° (W) 11:10:20 437.405
PCSat 04 Dec 11:03:45 11:08:30 32° 111° (ESE) 11:13:17 145.827
Oscar 19 04 Dec 11:08:06 11:12:13 25° 62° (ENE) 11:16:20 437.125/150
AO-7 04 Dec 11:15:11 11:17:50 12° 32° (NNE) 11:20:30 29.400- 29.500
CUBEBUG 1 04 Dec 11:28:54 11:33:19 59° 101° (ESE) 11:37:41 437.445
Cosmos 2499 04 Dec 11:29:57 11:38:45 79° 80° (E) 11:46:56 435.465 / 435.565
RS-15 04 Dec 11:30:54 11:41:47 35° 349° (N) 11:52:51 29.354- 29.394
VELOX 1 04 Dec 11:34:23 11:38:42 45° 99° (E) 11:42:59 145.980
HUMSAT D 04 Dec 11:40:19 11:41:50 12° 301° (WNW) 11:43:22 437.325/437.525
JAS-2 04 Dec 11:41:04 11:46:04 23° 267° (W) 11:50:41 435.910
BUGSAT 1 04 Dec 11:51:33 11:55:29 37° 263° (W) 11:59:28 437.445
DX 1 04 Dec 11:54:38 11:58:47 39° 98° (E) 12:02:55 434.975-435.025
NANOSAT C BR1 04 Dec 12:00:54 12:02:52 13° 271° (W) 12:04:50 145.865
UKube-1 04 Dec 12:05:51 12:09:56 39° 98° (E) 12:13:59 .
QB50P2 04 Dec 12:06:14 12:06:51 10° 273° (W) 12:07:28 145.880/145.840
POLYITAN 1 04 Dec 12:06:20 12:07:25 11° 273° (W) 12:08:30 437.675
AO-85 04 Dec 12:13:34 12:15:03 12° 251° (WSW) 12:16:30 145.980
TISAT 1 04 Dec 12:17:20 12:19:54 16° 90° (E) 12:22:28 437.305
ESTCUBE 1 04 Dec 12:18:56 12:22:53 31° 294° (WNW) 12:26:50 437.505/2401.250
50 SAT 04 Dec 12:21:34 12:25:03 57° 287° (WNW) 12:28:33 437.505
SPROUT 04 Dec 12:22:42 12:27:02 84° 283° (WNW) 12:31:19 437.525
GONETS M04 04 Dec 12:25:35 12:34:05 60° 269° (W) 12:42:35
Gurwin Techsat 1B 04 Dec 12:25:59 12:31:12 60° 71° (ENE) 12:36:27 435.225
AISAT 04 Dec 12:33:45 12:38:02 45° 290° (WNW) 12:42:17 437.250
Oscar 19 04 Dec 12:46:15 12:51:14 51° 260° (W) 12:56:16 437.125/150
PCSat 04 Dec 12:46:31 12:51:44 47° 311° (NW) 12:57:00 145.827
BEESAT 3 04 Dec 12:52:02 12:55:44 35° 44° (NE) 12:59:24 437.485
AO-7 04 Dec 13:00:51 13:08:17 39° 56° (NE) 13:15:46 29.400- 29.500
CUBEBUG 1 04 Dec 13:06:11 13:09:09 18° 299° (WNW) 13:12:07 437.445
ITAMSAT 1 04 Dec 13:10:23 13:15:11 39° 66° (ENE) 13:20:01 435.822/435.867
VELOX 1 04 Dec 13:11:26 13:14:53 22° 297° (WNW) 13:18:20 145.980
BEESAT 2 04 Dec 13:16:53 13:20:32 31° 43° (NE) 13:24:09 435.950
ITUPSAT 1 04 Dec 13:19:46 13:22:31 15° 89° (E) 13:25:16 437.325
Cosmos 2499 04 Dec 13:24:15 13:30:52 25° 282° (WNW) 13:37:12 435.465 / 435.565
DX 1 04 Dec 13:31:14 13:34:47 24° 296° (WNW) 13:38:18 434.975-435.025
AUBIESAT-1 04 Dec 13:42:04 13:45:31 20° 97° (E) 13:48:53 437.475
UKube-1 04 Dec 13:42:17 13:45:47 24° 296° (WNW) 13:49:15 .
RS-15 04 Dec 13:47:00 13:58:31 41° 24° (NNE) 14:09:53 29.354- 29.394
TISAT 1 04 Dec 13:51:44 13:55:54 55° 288° (WNW) 14:00:01 437.305
M-CUBED/EXP-1 PRIME 04 Dec 13:52:07 13:56:18 31° 100° (E) 14:00:22 437.505
SPROUT 04 Dec 14:01:05 14:02:14 11° 303° (WNW) 14:03:22 437.525
Gurwin Techsat 1B 04 Dec 14:07:35 14:11:33 21° 269° (W) 14:15:32 435.225
MOZHAYETS 4 04 Dec 14:16:49 14:19:19 14° 89° (E) 14:21:48
SWISSCUBE 04 Dec 14:25:26 14:30:12 70° 103° (ESE) 14:34:55 437.505
GONETS M04 04 Dec 14:25:59 14:28:56 12° 291° (WNW) 14:31:53
BEESAT 04 Dec 14:29:41 14:34:27 69° 103° (ESE) 14:39:11 436.000
BEESAT 3 04 Dec 14:29:49 14:33:17 29° 243° (WSW) 14:36:45 437.485
PCSat 04 Dec 14:33:39 14:36:32 14° 334° (NNW) 14:39:26 145.827
ITAMSAT 1 04 Dec 14:50:05 14:54:43 32° 264° (W) 14:59:23 435.822/435.867
AO-7 04 Dec 14:52:35 15:00:44 60° 256° (WSW) 15:08:59 29.400- 29.500
BEESAT 2 04 Dec 14:54:40 14:58:21 34° 242° (WSW) 15:02:00 435.950
ITUPSAT 1 04 Dec 14:56:06 15:00:51 70° 288° (WNW) 15:05:35 437.325
KKS-1 04 Dec 15:00:33 15:03:28 17° 91° (E) 15:06:20 437.445
NOAA 15 04 Dec 15:04:36 15:05:07 10° 50° (NE) 15:05:36 137.62
STARS 04 Dec 15:13:39 15:14:22 10° 87° (E) 15:15:04 437.465
HORYU 2 04 Dec 15:15:39 15:19:23 26° 64° (ENE) 15:23:07 437.375
AUBIESAT-1 04 Dec 15:15:40 15:20:11 53° 295° (WNW) 15:24:34 437.475
GOMX 1 04 Dec 15:23:01 15:26:04 17° 58° (ENE) 15:29:15 467.674
M-CUBED/EXP-1 PRIME 04 Dec 15:26:26 15:30:45 37° 298° (WNW) 15:34:59 437.505
AIST 2 04 Dec 15:27:25 15:30:55 24° 39° (NE) 15:34:23 435.215
O/OREOS (USA 219) 04 Dec 15:33:44 15:37:47 32° 106° (ESE) 15:41:51 437.305
BRITE-PL 04 Dec 15:36:18 15:40:23 44° 69° (ENE) 15:44:46 437.365/2234.400
DOVE 4 04 Dec 15:43:45 15:46:09 14° 55° (NE) 15:48:35 437.250
CUBESAT XI-V 04 Dec 15:50:40 15:54:07 20° 91° (E) 15:57:35 437.345
MOZHAYETS 4 04 Dec 15:52:25 15:56:58 68° 287° (WNW) 16:01:28
SWISSCUBE 04 Dec 16:04:25 16:07:27 17° 301° (WNW) 16:10:29 437.505
NOAA 18 04 Dec 16:04:58 16:09:05 22° 58° (ENE) 16:13:13 137.9125
BEESAT 04 Dec 16:08:38 16:11:43 17° 301° (WNW) 16:14:47 436.000
CUTE-I 04 Dec 16:10:28 16:15:10 32° 63° (ENE) 16:19:50 437.470
